CYGNUS NG-24

Last updated on Mon Sep 21 2026 00:02:05 GMT+0000 (Coordinated Universal Time)

1 68689U 26079A 26263.52959654 .00008422 00000+0 15975-3 0 9990 2 68689 51.6308 188.2246 0004825 162.2847 197.8311 15.49196792586981
UTC large
Height (km)
Speed (km/s)
/
Latitude / Longitude
Inclination (degrees)
Orbital Period (minutes)
Azimuth
Elevation
Range (km)
Doppler Factor

Next 0 passes for location: London (51.5072 / 0.1276)

No passes found over London.
CYGNUS NG-24